Wind_Speed
13 13 14 14 14 13 13 13 13 12 12 12 11 11 10 10 9 9 9 9 9 9 9 10 9 9 9 9 9 10 10 10 10 10 10 10 10 11 11 11 11 11 11
14 15 14 14 14 13 14 14 13 13 13 13 13 12 11 10 9 9 10 10 10 10 10 10 9 10 10 10 10 11 11 11 11 11 12 12 11 11 12 12 11 12 12
14 15 15 15 14 14 13 13 12 13 13 14 13 11 11 10 10 10 10 11 11 11 12 11 10 11 10 11 11 12 12 12 12 12 12 12 12 11 11 12 12 12 12
15 15 15 15 14 14 14 13 13 13 13 13 13 12 11 10 11 11 11 11 11 11 12 12 11 11 12 12 12 13 13 13 13 13 13 13 13 12 12 12 12 13 13
14 15 15 14 13 13 13 13 13 14 15 15 14 13 12 12 12 12 12 12 12 12 12 12 12 12 13 13 13 13 13 13 14 14 13 13 13 13 13 13 13 13 13
15 15 15 14 14 13 13 13 13 14 15 15 15 14 14 13 13 13 13 13 13 13 13 13 13 14 14 14 14 14 14 14 14 14 13 13 13 14 14 14 14 13 14
16 16 16 15 14 14 14 14 14 14 15 16 16 15 15 15 15 15 14 14 15 15 15 14 14 15 16 16 16 15 15 15 15 14 14 14 14 13 14 14 14 15 15
17 17 17 16 15 16 16 16 16 15 15 16 16 16 16 16 15 15 15 15 16 17 17 17 16 16 16 16 16 15 15 15 15 15 15 14 14 14 14 14 15 15 15
18 18 19 18 17 17 17 16 16 16 16 16 17 17 17 17 17 17 16 17 17 18 18 19 19 19 18 17 16 16 16 16 16 16 15 15 14 15 15 15 15 15 15
19 20 20 20 20 18 18 17 17 17 17 17 18 18 18 19 19 18 18 18 18 19 20 21 21 21 20 19 18 18 17 17 17 17 17 16 16 16 15 15 16 16 16
19 20 20 20 20 19 18 18 18 19 19 18 19 19 20 20 21 20 20 20 20 21 22 22 22 22 22 21 21 20 19 19 19 19 19 19 18 17 17 16 16 16 16
20 20 20 20 20 20 20 20 20 20 21 21 20 21 21 22 22 22 22 22 22 23 22 23 23 23 23 22 22 21 21 21 21 21 21 20 19 19 18 18 18 17 17
21 21 21 21 21 21 22 22 22 22 22 22 22 23 23 23 23 24 24 23 23 23 23 24 23 23 23 22 22 22 23 22 22 22 21 21 20 20 19 19 19 19 18
22 22 21 21 22 22 22 23 23 23 24 23 23 23 24 24 24 25 25 25 25 24 24 24 25 25 25 24 23 23 23 22 22 22 21 21 21 21 21 21 20 19 19
23 23 22 23 23 23 24 24 25 25 25 25 25 25 25 25 26 26 27 27 27 26 24 25 26 26 26 26 25 24 23 23 23 23 22 22 22 22 22 21 21 20 20
24 24 24 23 24 24 25 26 26 26 26 26 27 26 26 27 28 28 28 28 28 27 26 25 26 27 26 26 25 24 24 24 24 24 24 23 23 23 23 22 22 22 21
26 25 25 25 25 26 26 26 27 26 26 26 26 27 28 28 29 29 29 29 29 28 27 25 25 26 26 25 25 24 24 24 24 23 23 23 23 24 24 24 24 23 22
27 27 26 26 26 27 27 28 27 27 27 27 27 27 27 28 28 29 29 28 28 29 28 28 28 27 26 26 26 25 24 24 24 24 24 24 24 24 24 25 25 24 24
28 28 28 28 28 29 29 28 28 28 28 28 28 28 29 29 29 28 27 27 28 29 29 29 29 28 27 27 28 26 25 25 25 25 24 24 25 25 25 26 26 26 26
28 29 29 30 30 30 30 30 30 29 29 29 29 29 29 29 29 28 28 28 28 29 29 29 29 28 28 28 28 27 26 26 26 26 26 25 25 25 26 27 27 27 27
28 29 30 31 31 31 30 30 30 30 30 30 30 30 30 30 30 29 29 30 30 30 29 29 30 30 29 29 28 28 28 27 28 27 27 26 25 25 25 26 26 26 26
28 29 30 31 31 31 30 30 30 30 30 31 31 30 31 31 31 30 30 30 29 30 30 30 29 30 30 30 30 30 29 29 29 28 28 27 26 26 26 26 25 26 26
29 29 30 30 30 30 30 30 30 31 31 31 31 32 31 31 31 30 30 30 29 29 29 29 29 29 29 29 29 30 30 29 29 28 28 28 27 27 26 26 26 26 27
28 29 30 30 30 29 29 30 30 30 30 31 31 30 31 31 31 30 31 31 31 30 30 29 29 29 29 29 29 29 29 29 29 29 29 29 28 27 27 27 27 27 27
28 29 30 30 29 28 28 29 30 30 30 30 30 30 30 30 30 30 30 31 31 30 30 30 29 29 29 29 29 29 29 29 29 29 30 29 29 29 28 28 27 27 27
28 28 29 28 28 28 27 28 29 30 29 29 30 30 30 30 30 30 31 30 30 30 30 30 30 30 29 29 30 30 30 29 29 30 29 29 30 30 30 29 29 28 28
Wind_Direction
267 270 273 275 272 267 267 269 268 262 261 258 256 258 263 264 267 270 269 267 269 266 268 273 275 278 279 277 277 275 273 270 270 274 275 276 273 270 267 265 267 268 266
267 268 271 271 266 265 266 264 261 259 257 257 255 258 264 265 266 272 270 268 268 270 267 271 275 277 280 281 278 277 275 271 271 273 276 274 271 271 266 265 268 269 267
267 268 268 269 263 259 262 264 262 261 259 260 258 258 260 264 271 274 273 270 265 271 272 269 273 281 283 281 277 278 278 277 274 273 276 273 270 270 268 265 265 269 268
266 266 266 268 262 257 256 257 258 258 258 258 261 262 259 265 270 273 274 269 269 272 275 273 275 278 281 281 280 281 280 277 275 275 275 275 272 268 267 265 264 266 267
266 267 266 264 260 255 254 255 257 259 257 257 259 261 262 261 267 270 273 271 269 271 278 278 277 278 281 282 281 280 279 277 276 275 275 275 273 268 266 265 264 265 266
265 266 265 262 258 255 257 259 260 263 260 259 260 260 263 263 268 274 271 269 270 272 276 281 279 279 282 283 282 277 274 275 275 272 273 274 272 269 267 266 266 266 267
263 263 261 258 255 254 255 257 259 262 261 260 261 259 261 262 265 272 272 267 269 273 273 277 280 282 283 283 281 277 274 274 273 271 271 272 273 272 269 268 267 268 268
263 263 260 256 253 253 254 256 258 261 262 259 258 260 260 261 264 266 267 268 269 271 274 275 277 282 283 282 279 275 273 271 271 270 270 270 271 271 271 267 266 268 268
259 260 260 258 256 253 253 254 256 257 258 257 257 258 260 264 266 266 267 270 270 272 271 274 276 278 279 280 276 272 271 269 268 268 269 270 270 269 271 269 268 265 266
258 260 259 257 257 255 253 254 255 257 259 259 257 258 262 264 267 268 269 271 273 274 271 271 273 274 275 276 274 272 271 268 267 268 269 269 270 271 270 269 267 265 264
261 262 261 258 255 253 254 255 256 258 259 260 258 260 262 265 267 269 271 272 273 274 275 273 272 270 271 273 273 274 272 270 268 267 269 269 269 268 268 267 268 267 266
262 260 259 259 258 256 256 257 259 261 261 261 261 261 263 266 267 269 270 272 272 272 273 273 271 270 270 271 270 271 271 270 269 269 269 269 268 267 266 266 266 267 267
261 259 258 257 258 259 259 259 260 263 264 264 265 263 264 266 268 268 269 271 273 273 274 272 271 271 270 271 269 271 269 267 267 268 268 267 267 266 266 266 266 266 267
262 261 258 256 257 258 261 262 262 265 267 268 270 267 264 265 268 268 269 271 271 272 273 271 270 268 268 270 270 273 269 267 266 266 267 265 264 264 265 266 266 266 267
261 259 258 257 258 258 260 261 262 265 266 268 270 268 266 266 268 268 269 270 269 270 272 271 268 266 267 270 269 269 267 267 266 264 265 265 263 263 264 265 266 266 266
260 260 259 258 258 259 259 261 263 265 266 268 270 268 266 267 269 269 269 269 268 268 271 271 267 266 268 269 269 266 265 267 266 264 264 265 264 264 264 265 266 266 265
260 259 259 258 258 258 259 261 264 267 268 270 270 271 270 268 269 268 268 267 266 266 267 267 267 269 269 268 267 267 266 265 266 266 267 268 268 267 266 264 264 264 264
259 259 258 259 259 260 261 262 265 268 269 270 270 271 274 272 271 269 267 265 264 265 266 267 269 269 268 268 268 266 265 265 265 266 267 269 268 268 266 264 263 262 262
259 258 258 259 260 263 265 264 266 268 268 269 271 272 275 275 273 273 269 267 266 266 266 267 268 267 266 268 267 265 265 265 267 268 268 270 268 266 265 264 263 262 262
258 258 258 260 262 263 264 264 266 268 270 271 270 272 273 274 272 272 271 269 268 268 268 267 266 267 266 266 264 264 264 264 267 268 269 269 268 266 266 264 264 263 262
259 258 259 260 261 262 263 264 267 269 270 270 270 272 274 274 272 270 270 269 268 268 268 268 268 266 265 265 264 264 264 265 266 267 267 267 266 266 265 264 264 263 262
261 260 261 262 263 264 263 263 266 268 269 271 272 273 274 274 271 270 269 268 267 267 268 268 267 266 265 264 263 263 264 265 265 264 265 265 265 265 264 265 264 263 262
262 261 261 262 263 264 263 263 264 266 269 272 273 274 274 276 274 272 270 268 268 268 269 267 266 265 264 263 262 262 262 263 264 264 264 263 264 264 264 265 264 263 262
262 261 261 262 262 261 261 263 265 267 270 273 275 276 277 278 275 273 272 271 270 268 268 267 266 264 262 261 260 260 261 262 262 262 262 262 262 263 263 264 264 264 262
263 262 262 261 261 260 261 264 268 270 272 274 275 277 278 277 274 272 273 273 271 268 266 266 267 266 261 261 261 261 262 260 261 262 262 261 261 263 263 264 264 263 262
261 260 261 262 263 261 263 266 268 270 273 276 276 276 277 277 276 275 273 272 270 268 267 267 266 265 263 260 259 259 259 260 260 262 261 261 261 262 263 264 264 263 263
Height
5876 5876 5875 5875 5875 5874 5874 5874 5874 5873 5873 5873 5873 5873 5873 5873 5873 5873 5873 5872 5872 5872 5872 5871 5871 5871 5871 5871 5871 5870 5870 5870 5869 5869 5869 5869 5868 5868 5868 5868 5868 5868 5867
5873 5873 5872 5872 5872 5871 5871 5871 5871 5870 5870 5870 5870 5870 5870 5871 5871 5871 5870 5870 5870 5870 5869 5869 5869 5869 5868 5868 5868 5868 5868 5867 5867 5867 5866 5866 5867 5866 5865 5865 5865 5865 5865
5870 5869 5869 5868 5868 5868 5868 5868 5868 5867 5867 5867 5868 5868 5868 5868 5868 5868 5868 5867 5867 5867 5867 5866 5866 5866 5866 5865 5865 5865 5865 5864 5864 5864 5863 5863 5863 5863 5863 5862 5862 5862 5862
5866 5865 5865 5865 5864 5864 5864 5864 5864 5864 5864 5864 5865 5865 5865 5865 5865 5865 5864 5864 5864 5864 5864 5864 5863 5863 5863 5862 5862 5862 5861 5861 5861 5860 5860 5860 5859 5859 5860 5860 5859 5859 5859
5862 5861 5861 5861 5861 5861 5861 5861 5861 5861 5861 5861 5862 5862 5862 5862 5862 5862 5861 5861 5861 5861 5861 5860 5860 5860 5860 5859 5858 5858 5858 5858 5857 5857 5857 5857 5856 5856 5856 5856 5856 5856 5856
5858 5857 5857 5857 5858 5858 5858 5858 5858 5858 5857 5858 5858 5859 5859 5859 5859 5858 5858 5858 5858 5858 5858 5857 5857 5857 5856 5856 5855 5855 5854 5854 5854 5854 5854 5853 5853 5852 5852 5852 5852 5852 5852
5854 5853 5853 5854 5854 5854 5855 5855 5855 5855 5854 5855 5855 5855 5855 5855 5855 5855 5855 5855 5855 5855 5854 5854 5854 5853 5853 5852 5852 5851 5851 5851 5850 5850 5850 5850 5849 5849 5849 5849 5849 5849 5849
5849 5850 5850 5850 5850 5851 5851 5851 5851 5851 5851 5851 5851 5851 5851 5851 5851 5852 5851 5851 5851 5851 5851 5851 5850 5850 5849 5849 5848 5848 5847 5847 5847 5847 5846 5846 5846 5845 5845 5845 5845 5845 5845
5845 5845 5845 5846 5846 5846 5847 5847 5848 5848 5848 5848 5847 5847 5848 5848 5848 5847 5847 5847 5847 5847 5846 5846 5846 5845 5845 5844 5844 5844 5843 5843 5843 5842 5842 5842 5841 5841 5841 5841 5841 5841 5841
5840 5840 5840 5841 5842 5842 5842 5843 5844 5844 5844 5844 5844 5844 5844 5844 5844 5843 5843 5842 5842 5842 5842 5841 5841 5841 5840 5840 5840 5839 5839 5838 5838 5838 5838 5837 5837 5837 5837 5837 5836 5837 5837
5835 5835 5835 5836 5836 5837 5838 5838 5839 5839 5839 5839 5839 5839 5840 5839 5839 5839 5838 5838 5837 5837 5837 5836 5835 5835 5835 5835 5835 5834 5834 5833 5833 5833 5833 5833 5833 5832 5832 5832 5832 5832 5832
5829 5830 5830 5831 5831 5832 5832 5833 5833 5834 5834 5834 5834 5834 5834 5834 5834 5834 5833 5832 5832 5831 5831 5830 5830 5829 5829 5829 5829 5829 5828 5828 5827 5827 5827 5827 5827 5827 5827 5827 5827 5827 5828
5824 5824 5825 5825 5825 5826 5827 5827 5828 5828 5828 5828 5828 5828 5828 5828 5828 5828 5827 5827 5826 5825 5824 5824 5823 5823 5823 5823 5823 5822 5822 5822 5822 5821 5821 5821 5822 5822 5822 5822 5822 5822 5823
5818 5818 5819 5819 5820 5820 5820 5821 5821 5822 5822 5822 5822 5822 5822 5822 5822 5821 5821 5820 5820 5819 5818 5817 5817 5816 5816 5816 5816 5816 5816 5816 5816 5815 5816 5816 5816 5816 5816 5816 5816 5816 5817
5811 5812 5812 5813 5813 5814 5814 5814 5815 5815 5815 5815 5815 5815 5815 5815 5815 5814 5814 5814 5813 5813 5812 5811 5810 5810 5810 5810 5810 5810 5810 5809 5809 5809 5809 5809 5810 5810 5810 5811 5811 5811 5811
5805 5805 5806 5806 5806 5807 5807 5808 5808 5808 5808 5808 5808 5807 5807 5807 5807 5807 5806 5806 5806 5806 5805 5804 5803 5803 5803 5803 5803 5803 5803 5803 5803 5803 5803 5803 5803 5803 5804 5805 5805 5806 5806
5797 5798 5798 5799 5799 5800 5800 5800 5801 5801 5801 5800 5800 5800 5800 5799 5799 5798 5798 5798 5798 5798 5798 5798 5797 5796 5796 5796 5796 5796 5796 5796 5796 5796 5796 5796 5796 5797 5797 5798 5798 5799 5799
5789 5789 5790 5791 5792 5792 5792 5793 5793 5793 5793 5793 5792 5792 5791 5791 5790 5790 5789 5789 5790 5790 5790 5790 5790 5790 5789 5789 5789 5789 5789 5789 5789 5789 5790 5790 5790 5790 5790 5791 5791 5792 5792
5780 5781 5782 5782 5783 5784 5784 5785 5785 5785 5785 5785 5784 5784 5783 5782 5782 5781 5781 5781 5781 5781 5781 5782 5781 5781 5781 5781 5781 5781 5781 5782 5782 5782 5782 5782 5783 5783 5783 5783 5784 5784 5785
5772 5772 5773 5774 5774 5775 5776 5776 5776 5776 5776 5776 5776 5775 5775 5774 5773 5773 5773 5772 5772 5772 5772 5772 5772 5773 5773 5773 5773 5773 5774 5774 5774 5774 5774 5775 5775 5775 5775 5776 5776 5777 5777
5763 5764 5764 5765 5765 5766 5766 5767 5767 5767 5767 5767 5767 5766 5766 5765 5764 5764 5764 5764 5764 5764 5763 5763 5763 5764 5764 5765 5765 5765 5765 5766 5766 5766 5767 5767 5767 5767 5767 5768 5768 5769 5769
5755 5755 5755 5756 5756 5756 5757 5758 5758 5758 5758 5758 5758 5757 5756 5756 5755 5755 5755 5754 5754 5754 5754 5754 5754 5754 5755 5756 5756 5757 5757 5757 5758 5758 5759 5759 5759 5760 5760 5760 5761 5761 5762
5746 5746 5746 5746 5747 5747 5748 5749 5749 5749 5749 5749 5749 5748 5747 5746 5746 5746 5745 5745 5745 5745 5744 5744 5744 5745 5746 5746 5747 5748 5748 5749 5749 5750 5750 5751 5751 5752 5752 5753 5753 5753 5754
5736 5737 5737 5738 5738 5738 5739 5739 5740 5740 5740 5740 5740 5739 5738 5737 5737 5736 5736 5736 5735 5735 5735 5735 5735 5736 5736 5737 5738 5739 5739 5740 5740 5741 5741 5742 5742 5743 5744 5744 5745 5745 5745
5727 5728 5728 5729 5729 5730 5730 5730 5730 5731 5731 5731 5730 5730 5729 5728 5727 5727 5726 5726 5726 5725 5726 5726 5726 5726 5727 5728 5728 5729 5730 5731 5731 5732 5732 5733 5734 5734 5735 5736 5736 5736 5737
5719 5719 5720 5720 5720 5721 5721 5722 5722 5722 5722 5722 5721 5720 5719 5719 5718 5717 5716 5716 5716 5716 5716 5716 5717 5717 5717 5718 5719 5720 5721 5721 5721 5722 5723 5724 5724 5725 5726 5726 5727 5728 5728